Location: Asheville, NC
(35.6000°N, 82.5500°W)
Time: 20:18:46

N. Korean satellite - Pass Details

Date: 03 January 2018
Orbit: 460 x 512 km, 97.2° (Epoch: 23 March)

Event Time Altitude Azimuth Distance (km) Brightness Sun altitude
Rises 17:48:46 0° 141° (SE) 2,610 10.1 -4.3°
Reaches altitude 10° 17:51:07 10° 127° (SE) 1,725 9.1 -4.7°
Maximum altitude 17:54:10 24° 72° (ENE) 1,076 7.7 -5.3°
Drops below altitude 10° 17:57:13 10° 17° (NNE) 1,722 9.0 -5.9°
Sets 17:59:33 0° 4° (N) 2,603 10.0 -6.3°
